Regional Weather Roundup
Issued by NWS Boston, MA

Current Version | Previous Version | Text Only | Print | Product List | Glossary Off
Versions: 1 2 3 4 5 6 7 8 9 10 11 12 13 14 15 16 17 18 19 20 21 22 23 24 25 26 27 28 29 30 31 32 33 34 35 36 37 38 39 40 41 42 43 44 45 46 47 48 49 50
000 ASUS41 KBOX 291110 RWRBOX REGIONAL WEATHER ROUNDUP NATIONAL WEATHER SERVICE TAUNTON MA 700 AM EDT MON MAY 29 2017 NOTE: "FAIR" INDICATES FEW OR NO CLOUDS BELOW 12,000 FEET WITH NO SIGNIFICANT WEATHER AND/OR OBSTRUCTIONS TO VISIBILITY. MAZALL-291200- EASTERN MASSACHUSETTS CITY SKY/WX TMP DP RH WIND PRES REMARKS BOSTON CLOUDY 51 49 92 E10 30.02S BEVERLY CLOUDY 51 49 92 SE8 30.03R LAWRENCE CLOUDY 54 49 83 E6 30.04R BEDFORD CLOUDY 52 47 83 E8 30.00S BLUE HILL N/A 50 47 89 E10 29.98S NORWOOD CLOUDY 53 50 89 E9 29.99F MARSHFIELD CLOUDY 50 50 100 SE8 30.02R PLYMOUTH CLOUDY 50 47 89 E12 30.01R TAUNTON CLOUDY 51 48 89 E9 29.99F NEW BEDFORD CLOUDY 51 48 89 E7 29.98F $$ MAZALL-291200- CAPE COD AND THE ISLANDS CITY SKY/WX TMP DP RH WIND PRES REMARKS FALMOUTH N/A N/A N/A N/A MISG N/A HYANNIS CLOUDY 49 47 93 E9 29.99S CHATHAM CLOUDY 49 48 97 E10 30.02S PROVINCETOWN CLOUDY 49 48 97 E12 30.04R NANTUCKET LGT RAIN 48 45 89 E13 29.99F MARTHAS VNYRD LGT RAIN 50 47 89 E13 29.98F $$ MAZALL-291200- CENTRAL AND WESTERN MASSACHUSETTS CITY SKY/WX TMP DP RH WIND PRES REMARKS WORCESTER CLOUDY 48 46 93 E8 29.99R FITCHBURG CLOUDY 54 50 86 E6 30.01R ORANGE CLOUDY 52 50 93 CALM 29.98R SPRINGFIELD PTSUNNY 53 48 84 E7 29.95R WESTFIELD NOT AVBL NORTH ADAMS N/A N/A N/A N/A MISG 29.93R $$ RIZALL-291200- RHODE ISLAND CITY SKY/WX TMP DP RH WIND PRES REMARKS PROVIDENCE CLOUDY 52 51 97 NE8 29.99S NEWPORT LGT RAIN 52 51 97 E10 29.97S BLOCK ISLAND LGT RAIN 51 50 96 E13 29.96S SMITHFIELD CLOUDY 49 48 97 SE8 29.99S WESTERLY LGT RAIN 53 51 93 E9 29.97R $$ CTZALL-291200- CONNECTICUT CITY SKY/WX TMP DP RH WIND PRES REMARKS BRADLEY INTL PTSUNNY 54 50 86 N5 29.95S HARTFORD CLOUDY 55 49 80 CALM 29.95R BRIDGEPORT RAIN 56 52 86 E16 29.92S FOG DANBURY LGT RAIN 54 52 93 E7 29.93R GROTON RAIN 53 49 86 NE13 29.95R FOG NEW HAVEN RAIN 53 51 93 E8 29.92S FOG CHESTER LGT RAIN 52 52 100 E7 29.95R MERIDEN LGT RAIN 54 51 90 E3 29.94R WILLIMANTIC CLOUDY 55 50 83 E5 29.96S OXFORD CLOUDY 54 46 76 E8 29.93S $$ MEZ002-015-021-024-NHZ003-005-008-011-012-014-VTZ005-008-291200- NORTHERN NEW ENGLAND CITY SKY/WX TMP DP RH WIND PRES REMARKS PORTLAND ME FOG 48 46 93 SE12G18 30.07S VSB 3/4 BANGOR ME CLOUDY 45 44 97 SE7 30.13R FOG CONCORD NH CLOUDY 53 49 86 CALM 30.02R MANCHESTER NH CLOUDY 54 48 80 E8 30.00S NASHUA NH CLOUDY 54 50 86 VRB6 30.02R PORTSMOUTH NH CLOUDY 50 48 94 E9 30.03R JAFFREY NH CLOUDY 52 50 93 CALM 30.00R KEENE NH CLOUDY 52 49 89 CALM 29.99R BURLINGTON VT CLOUDY 63 55 75 S9 29.88R MT. WASHINGTON FOG 39 39 100 S22 N/A VSB 0 WCI 29 $$ NYZ052-076-291200- EASTERN NEW YORK CITY SKY/WX TMP DP RH WIND PRES REMARKS ALBANY LGT RAIN 57 48 72 SE5 29.91R NEW YORK CITY LGT RAIN 57 54 89 E10 29.89S $$ ANZALL-291200- MARINE OBSERVATIONS STATION/POSITION TIME TEMP WIND PRES VSBY WAVE AIR SEA DIR/SP/G HT/PER (UTC) (F) (DEG/KT/KT) (MB) (MI) (FT/S) BOSTON BUOY 0950 50 51 100/ 12/ 14 1015.4 2/ 8 BUZZARDS BAY 1000 51 70/ 16/ 16 1015.4R NANTUCKET SOUND 1050 53 1015.3F 2/ 3 MASS BAY-STELLWA 1004 50 51 110/ 12/ 14 1015.8R 3/ 4 ISLE OF SHOALS 1000 48 120/ 14/ 14 1016.6R S OF BLOCK IS 1055 53 N/A 4/ 5 $$ ......................KEY......................... SKY/WX - SKY CONDITION/PRESENT WEATHER TMP - TEMPERATURE IN FAHRENHEIT DWPT - DEWPOINT IN FAHRENHEIT RH - RELATIVE HUMIDITY IN PERCENT WIND - DIRECTION AND SPEED IN MPH PRES - MEAN SEA LEVEL PRESSURE IN INCHES OF HG WCI - WIND CHILL INDEX VSB - VISIBILITY IN MILES HX - HEAT INDEX TC - TEMPERATURE IN CELSIUS VRB - VARIABLE WIND DIRECTION N/A - NOT AVAILABLE

USA.gov is the U.S. government's official web portal to all federal, state and local government web resources and services.